Flag for Czech Republic Weather past 2 weeks in Brno, Czech Republic

Now
25 °F

Passing clouds.


Feels Like: 25 °F
Forecast: 21 / 35 °F
Wind: 2 mph from East

Location: Brno / Turany

Current Time: Jan 27, 2015 at 4:59:58 AM

Latest Report: Jan 27, 2015 at 3:00 AM


Visibility: 9 mi

Pressure: 30.03 "Hg

Humidity: 88%

Dew point: 22 °F

Location of BrnoLocation

Historic Weather in Brno — Graph

°F

Brno temperature yesterday

Maximum temperature yesterday: 35 °F (at 3:00 PM)
Minimum temperature yesterday: 26 °F (at 11:00 PM)
Average temperature yesterday: 32 °F

Past Weeks' High & Low Weather Summary

 TemperatureHumidityPressure
High46 °F (Jan 13, 2:00 PM)95% (Jan 19, 11:00 PM)30.33 "Hg (Jan 19, 11:00 PM)
Low24 °F (Jan 27, 2:00 AM)50% (Jan 13, 12:00 PM)29.77 "Hg (Jan 17, 4:00 AM)
Average37 °F81%30.05 "Hg
* Reported Jan 12 3:00 AM — Jan 27 3:00 AM, Brno, Weather by CustomWeather, © 2014

Note: Actual official high and low records may vary slightly from our data, if they occured in-between our weather recording intervals... More about our weather records

Advertising

Brno weather history for previous 24 hours

 ConditionsComfort  
Time TempWeatherWind HumidityBarometerVisibility
3:00 AM
Jan 27
25 °FPassing clouds.2 mph88%30.03 "Hg9 mi
2:00 AM24 °FPassing clouds.3 mph87%30.06 "Hg9 mi
1:00 AM26 °FPassing clouds.2 mph84%30.08 "Hg12 mi
12:00 AM26 °FPassing clouds.2 mph82%30.11 "Hg12 mi
11:00 PM
Jan 26
26 °FPassing clouds.3 mph81%30.14 "Hg12 mi
9:00 PM27 °FPassing clouds.2 mph81%30.18 "Hg12 mi
8:00 PM29 °FPassing clouds.1 mph70%30.19 "Hg12 mi
7:00 PM29 °FOvercast.1 mph75%30.21 "Hg19 mi
6:00 PM30 °FOvercast.1 mph71%30.22 "Hg19 mi
5:00 PM30 °FPassing clouds.2 mph70%30.23 "Hg22 mi
4:00 PM33 °FPartly sunny.2 mph63%30.23 "Hg22 mi
3:00 PM35 °FPassing clouds.2 mph54%30.24 "Hg25 mi
2:00 PM34 °FOvercast.2 mph56%30.27 "Hg25 mi
1:00 PM34 °FOvercast.3 mph57%30.29 "Hg25 mi
12:00 PM34 °FOvercast.2 mph56%30.30 "Hg22 mi
11:00 AM34 °FOvercast.5 mph57%30.32 "Hg22 mi
10:00 AM34 °FOvercast.3 mph66%30.33 "Hg22 mi
9:00 AM33 °FOvercast.2 mph78%30.33 "Hg22 mi
8:00 AM33 °FOvercast.2 mph81%30.33 "Hg22 mi
7:00 AM33 °FOvercast.2 mph81%30.32 "Hg12 mi
6:00 AM33 °FOvercast.2 mph78%30.32 "Hg12 mi
5:00 AM32 °FOvercast.2 mph82%30.32 "Hg12 mi
4:00 AM32 °FOvercast.1 mph84%30.31 "Hg12 mi
Weather by CustomWeather, © 2014

See weather overviewHow to use our weather pages